Yosemite National Park, California, United States (95389)
Lat: 37.54N, Lon: 119.84W
Wx Zone: CAZ093
Local Info
Past Weather Observations for Monday, October 20, 2014

NOTE: This archive is for the closest National Weather Service station to Yosemite National Park. Information may differ from the station used for current weather conditions.

Click here for Long-term Archive

Time Weather Temperature Dewpoint Humidity Pressure Winds Precip Visibility
23:53
Clear
61°F / 16°C 52°F / 11°C 72% 30.06 in
(1018 mb)
NW 10.4 mph
(NW 17 kph)
- 10SM
22:53
Clear
63°F / 17°C 50°F / 10°C 64% 30.04 in
(1017 mb)
NW 11.5 mph
(NW 19 kph)
- 10SM
21:53
Partly Cloudy
64°F / 18°C 50°F / 10°C 60% 30.04 in
(1017 mb)
NW 11.5 mph
(NW 19 kph)
- 10SM
20:53
Overcast
66°F / 19°C 48°F / 9°C 52% 30.01 in
(1016 mb)
NNW 12.7 mph
(NNW 20 kph)
- 10SM
19:53
Overcast
68°F / 20°C 48°F / 9°C 49% 30.01 in
(1016 mb)
NW 16.1 mph
(NW 26 kph)
- 10SM
18:53
Overcast
68°F / 20°C 52°F / 11°C 56% 29.98 in
(1015 mb)
NNW 13.8 mph
(NNW 22 kph)
- 10SM
17:53
Mostly Cloudy
68°F / 20°C 48°F / 9°C 49% 29.95 in
(1014 mb)
NNW 17.3 mph
(NNW 28 kph)
- 10SM
16:53
Clear
70°F / 21°C 54°F / 12°C 57% 29.92 in
(1013 mb)
NW 20.7 mph
(NW 33 kph)
- 10SM
15:53
Partly Cloudy
75°F / 24°C 55°F / 13°C 50% 29.92 in
(1013 mb)
NW 20.7 mph
(NW 33 kph)
- 10SM
14:53
Clear
81°F / 27°C 48°F / 9°C 32% 29.89 in
(1012 mb)
NNW 9.2 mph
(NNW 15 kph)
- 10SM
13:53
Clear
79°F / 26°C 46°F / 8°C 32% 29.92 in
(1013 mb)
W 5.8 mph
(W 9 kph)
- 10SM
12:53
Clear
77°F / 25°C 52°F / 11°C 42% 29.92 in
(1013 mb)
W 8.1 mph
(W 13 kph)
- 10SM
11:53
Clear
77°F / 25°C 54°F / 12°C 44% 29.92 in
(1013 mb)
SSW 6.9 mph
(SSW 11 kph)
- 10SM
10:53
Clear
73°F / 23°C 54°F / 12°C 50% 29.95 in
(1014 mb)
NW 4.6 mph
(NW 7 kph)
- 10SM
09:53
Clear
72°F / 22°C 55°F / 13°C 57% 29.95 in
(1014 mb)
NNW 6.9 mph
(NNW 11 kph)
- 10SM
08:53
Clear
66°F / 19°C 55°F / 13°C 68% 29.95 in
(1014 mb)
NW 9.2 mph
(NW 15 kph)
- 10SM
07:53
Clear
63°F / 17°C 55°F / 13°C 77% 29.95 in
(1014 mb)
NW 10.4 mph
(NW 17 kph)
- 9SM
06:53
Clear
Fog And Mist
57°F / 14°C 54°F / 12°C 88% 29.92 in
(1013 mb)
NW 4.6 mph
(NW 7 kph)
- 5SM
05:53
Clear
59°F / 15°C 55°F / 13°C 88% 29.92 in
(1013 mb)
NW 4.6 mph
(NW 7 kph)
- 9SM
04:53
Clear
61°F / 16°C 55°F / 13°C 83% 29.89 in
(1012 mb)
N 8.1 mph
(N 13 kph)
- 10SM
03:53
Clear
61°F / 16°C 55°F / 13°C 83% 29.89 in
(1012 mb)
NNW 9.2 mph
(NNW 15 kph)
- 10SM
02:53
Clear
61°F / 16°C 54°F / 12°C 77% 29.89 in
(1012 mb)
NW 6.9 mph
(NW 11 kph)
- 10SM
01:53
Clear
61°F / 16°C 54°F / 12°C 77% 29.89 in
(1012 mb)
NNW 6.9 mph
(NNW 11 kph)
- 10SM
00:53
Clear
61°F / 16°C 54°F / 12°C 77% 29.89 in
(1012 mb)
NW 5.8 mph
(NW 9 kph)
- 10SM
Time Weather Temperature Dewpoint Humidity Pressure Winds Precip Visibility


Weather for websites

WeatherForYou.com, LLC is not responsible for any damages or problems caused by this service. Current weather conditions are obtained from the closest station including government and personal stations which may have varying degrees of accuracy. Weather forecasts are derived from the NOAA NDFD. Like all things, this site belongs to Jesus Christ... He just trusts me to maintain it. If you have any questions or comments email webmaster@weatherforyou.com

Copyright © 2014, WeatherForYou.com LLC. All rights reserved.